Weather reports worldwide

Advertisment
Nice, France (7690): temperature & dewpoint: 11.08.2018 01:00:00 - 17.08.2018 01:00:00 (CEST)Nice, France (7690): temperature 5cm: 11.08.2018 01:00:00 - 17.08.2018 01:00:00 (CEST)Nice, France (7690): temperature -20cm & temperature -100cm: 11.08.2018 01:00:00 - 17.08.2018 01:00:00 (CEST)Nice, France (7690): wind speed & gusts: 11.08.2018 01:00:00 - 17.08.2018 01:00:00 (CEST)Nice, France (7690): wind direction: 11.08.2018 01:00:00 - 17.08.2018 01:00:00 (CEST)Nice, France (7690): reduced air pressure: 11.08.2018 01:00:00 - 17.08.2018 01:00:00 (CEST)Nice, France (7690): visibility: 11.08.2018 01:00:00 - 17.08.2018 01:00:00 (CEST)Nice, France (7690): sunshine duration: 11.08.2018 01:00:00 - 17.08.2018 01:00:00 (CEST)Nice, France (7690): precipitation: 11.08.2018 01:00:00 - 17.08.2018 01:00:00 (CEST)
Date & Time tt [°C] td [°C] tt 5cm [°C] tt -20cm [°C] tt -100cm [°C] ff [km/h] ff [kn] fx [km/h] fx [kn] dd ppp [hPa] vv [km] sd [min] rr [mm]
17.08.2018 01:00:00 25,7 16,8 25,4 27,4 26,9 9 5 16 8 NNW 1014,1 50 0 0,0
17.08.2018 00:00:00 26,0 16,5 25,7 27,4 27,0 13 7 22 12 N 1014,2 50 0 0,0
16.08.2018 23:00:00 26,3 16,2 26,0 27,4 26,8 17 9 23 12 NNW 1014,2 50 0 0,0
16.08.2018 22:00:00 26,6 17,4 25,1 27,4 26,8 7 4 9 5 NNE 1014,2 50 0 0,0
16.08.2018 21:00:00 27,3 19,6 27,2 27,3 27,1 2 1 13 7 SSW 1013,8 50 0 0,0
16.08.2018 20:00:00 27,6 18,3 28,2 27,4 26,9 10 5 14 8 SW 1013,6 50 0 0,0
16.08.2018 19:00:00 27,7 20,5 29,1 27,4 26,8 12 6 16 8 SSW 1013,8 50 26 0,0
16.08.2018 18:00:00 28,5 20,0 35,0 27,4 26,8 13 7 17 9 SSW 1014,0 50 60 0,0
16.08.2018 17:00:00 29,0 19,6 37,0 27,4 27,1 11 6 16 8 S 1014,1 50 60 0,0
16.08.2018 16:00:00 29,0 19,3 36,6 27,4 27,0 12 7 16 9 S 1014,3 50 58 0,0
16.08.2018 15:00:00 29,1 18,2 36,7 27,4 26,8 11 6 14 7 S 1015,1 50 53 0,0
16.08.2018 14:00:00 29,2 17,7 38,5 27,4 27,0 9 5 12 6 S 1015,6 50 60 0,0
16.08.2018 13:00:00 29,0 16,5 37,6 27,4 26,9 8 5 12 7 S 1016,0 50 58 0,0
16.08.2018 12:00:00 28,8 17,7 37,6 27,5 26,9 9 5 11 6 S 1016,2 50 60 0,0
16.08.2018 11:00:00 29,0 16,5 35,7 27,5 26,9 4 2 11 6 SE 1016,1 50 60 0,0
16.08.2018 10:00:00 28,3 15,6 31,7 27,5 26,9 8 5 21 11 N 1015,9 50 60 0,0
16.08.2018 09:00:00 26,2 15,0 26,4 27,5 26,9 16 8 22 12 N 1015,8 50 60 0,0
16.08.2018 08:00:00 23,8 15,0 22,7 27,5 26,9 18 10 28 15 NNW 1015,8 50 60 0,0
16.08.2018 07:00:00 22,9 15,0 22,1 27,5 27,0 16 9 24 13 N 1015,8 50 2 0,0
16.08.2018 06:00:00 23,1 14,9 22,4 27,5 26,9 14 8 22 12 N 1015,6 30 0 0,0
16.08.2018 05:00:00 23,4 14,9 22,6 27,5 27,0 16 9 24 13 NNW 1015,7 30 0 0,0
16.08.2018 04:00:00 23,3 15,1 22,7 27,5 26,9 18 10 24 13 NNW 1015,8 30 0 0,0
16.08.2018 03:00:00 23,8 15,0 23,2 27,5 27,0 15 8 19 11 NNW 1016,0 30 0 0,0
16.08.2018 02:00:00 24,1 15,0 23,6 27,4 27,0 13 7 19 10 N 1015,9 30 0 0,0
16.08.2018 01:00:00 24,5 15,1 23,8 27,5 27,0 13 7 18 10 NNW 1016,0 30 0 0,0
16.08.2018 00:00:00 24,7 15,3 24,0 27,5 26,9 14 7 20 11 NNW 1015,9 30 0 0,0
15.08.2018 23:00:00 25,1 15,4 24,4 27,5 26,9 12 7 16 9 NNW 1015,7 30 0 0,0
15.08.2018 22:00:00 26,5 15,2 25,1 27,5 27,1 8 4 14 7 NW 1015,8 30 0 0,0
15.08.2018 21:00:00 27,2 17,4 26,5 27,5 27,0 6 3 11 6 SW 1015,3 30 12 0,0
15.08.2018 20:00:00 28,4 16,0 29,2 27,5 27,2 9 5 15 8 WSW 1015,2 50 34 0,0
15.08.2018 19:00:00 28,6 16,8 30,5 27,5 27,1 10 5 16 9 SW 1015,1 50 18 0,0
15.08.2018 18:00:00 29,3 18,4 35,7 27,6 27,3 11 6 14 8 SSW 1015,2 50 57 0,0
15.08.2018 17:00:00 29,5 17,3 38,8 27,6 27,0 7 4 13 7 S 1015,0 50 60 0,0
15.08.2018 16:00:00 29,6 17,8 38,3 27,6 27,2 10 5 14 8 S 1015,0 50 60 0,0
15.08.2018 15:00:00 29,5 18,3 37,7 27,6 27,0 11 6 18 10 SSE 1015,2 50 60 0,0
15.08.2018 14:00:00 29,8 20,4 36,5 27,7 27,1 12 6 19 10 S 1015,3 50 58 0,0
15.08.2018 13:00:00 28,7 21,5 37,2 27,7 27,2 15 8 18 10 S 1015,4 50 60 0,0
15.08.2018 12:00:00 28,0 18,7 37,2 27,7 27,1 10 5 16 9 S 1015,2 50 60 0,0
15.08.2018 11:00:00 28,0 16,0 32,0 27,7 27,0 8 5 23 13 WNW 1015,1 50 60 0,0
15.08.2018 10:00:00 25,8 14,3 28,1 27,8 27,1 14 8 29 16 NW 1014,8 50 60 0,0
15.08.2018 09:00:00 23,5 13,9 23,7 27,8 27,1 18 10 27 15 NNW 1014,7 50 60 0,0
15.08.2018 08:00:00 21,4 14,1 20,4 27,8 27,2 21 12 31 17 NNW 1014,6 50 60 0,0
15.08.2018 07:00:00 20,3 14,0 19,9 27,8 27,1 25 13 42 23 NNW 1014,2 50 3 0,0
15.08.2018 06:00:00 20,2 14,1 19,8 27,9 27,1 24 13 33 18 NNW 1014,0 40 0 0,0
15.08.2018 05:00:00 20,4 14,3 20,1 27,8 27,1 23 13 32 17 NNW 1013,9 40 0 0,0
15.08.2018 04:00:00 20,7 14,6 20,4 27,9 27,1 22 12 31 17 NNW 1013,9 40 0 0,0
15.08.2018 03:00:00 21,0 15,1 20,5 27,9 27,2 14 8 30 16 NNW 1014,0 40 0 0,0
15.08.2018 02:00:00 21,4 15,0 21,0 27,9 27,3 22 12 31 17 NNW 1013,7 40 0 0,0
15.08.2018 01:00:00 21,6 15,2 21,2 27,9 27,2 19 11 27 14 NNW 1013,5 40 0 0,0
15.08.2018 00:00:00 22,4 15,0 21,8 27,9 27,1 11 6 29 16 N 1012,9 40 0 0,0
14.08.2018 23:00:00 22,9 15,0 22,2 27,9 27,2 17 9 31 17 NNW 1012,6 40 0 0,0
14.08.2018 22:00:00 23,5 15,0 22,4 27,9 27,2 17 9 32 18 NNW 1012,2 40 0 0,0
14.08.2018 21:00:00 23,8 16,1 22,9 27,9 27,2 22 12 34 18 NNE 1011,5 30 0 0,0
14.08.2018 20:00:00 24,1 17,6 23,7 27,9 27,1 13 7 32 17 N 1011,2 30 9 0,0
14.08.2018 19:00:00 25,6 20,8 23,7 27,9 27,3 9 5 38 20 ENE 1011,7 30 0 0,2
14.08.2018 18:00:00 26,1 20,9 25,8 28,0 27,0 29 15 37 20 E 1011,0 30 0 0,0
14.08.2018 17:00:00 25,9 20,5 26,6 28,0 27,2 20 11 26 14 ESE 1010,2 30 30 0,0
14.08.2018 16:00:00 27,4 20,5 33,0 28,0 27,1 18 10 24 13 ESE 1010,0 35 60 0,0
14.08.2018 15:00:00 27,3 20,4 33,5 28,0 27,3 18 10 27 15 E 1010,3 35 60 0,0
14.08.2018 14:00:00 27,1 21,2 33,5 28,1 27,1 19 10 27 15 E 1010,3 40 60 0,0
14.08.2018 13:00:00 27,4 20,7 32,3 28,1 27,3 20 11 25 13 ESE 1010,5 40 53 0,0
14.08.2018 12:00:00 27,4 20,5 33,8 28,1 27,1 9 5 14 7 ESE 1010,7 40 60 0,0
14.08.2018 11:00:00 26,9 20,0 32,7 28,1 27,2 5 3 15 8 E 1010,5 40 60 0,0
14.08.2018 10:00:00 26,2 15,9 28,2 28,1 27,2 10 5 21 12 NW 1010,2 50 60 0,0
14.08.2018 09:00:00 23,8 14,5 25,8 28,2 27,3 16 8 21 12 NW 1010,3 50 60 0,0
14.08.2018 08:00:00 22,9 14,7 20,8 28,2 27,2 13 7 19 11 NNW 1010,1 50 60 0,0
14.08.2018 07:00:00 21,2 14,4 20,1 28,2 27,2 15 8 27 14 NNW 1009,4 50 2 0,0
14.08.2018 06:00:00 21,6 14,7 20,5 28,2 27,2 17 9 22 12 NNW 1009,3 20 0 0,0
14.08.2018 05:00:00 21,8 14,9 21,0 28,2 27,2 19 10 31 17 NW 1009,4 20 0 0,0
14.08.2018 04:00:00 22,6 15,2 21,8 28,2 27,1 20 11 28 15 NNW 1009,8 20 0 0,0
14.08.2018 03:00:00 23,2 15,5 21,9 28,2 27,2 8 4 16 8 NW 1010,1 20 0 0,0
14.08.2018 02:00:00 23,0 17,2 22,3 28,3 27,3 12 6 17 9 NNW 1010,2 20 0 0,0
14.08.2018 01:00:00 23,8 21,1 22,9 28,3 27,1 9 5 15 8 NNW 1010,9 20 0 0,0
14.08.2018 00:00:00 23,7 21,2 22,6 28,3 27,2 10 6 14 8 W 1011,0 20 0 0,0
13.08.2018 23:00:00 24,5 21,4 23,4 28,3 27,3 5 3 11 6 N 1010,9 20 0 0,0
13.08.2018 22:00:00 24,8 21,7 24,3 28,3 27,2 9 5 34 18 W 1011,4 20 0 0,0
13.08.2018 21:00:00 25,2 22,5 24,9 28,3 27,2 23 13 37 20 SW 1010,9 25 4 0,0
13.08.2018 20:00:00 25,5 22,2 26,3 28,3 27,2 28 15 42 23 SW 1010,6 30 60 0,0
13.08.2018 19:00:00 25,8 21,7 28,4 28,3 27,2 29 15 41 22 SW 1011,0 35 60 0,0
13.08.2018 18:00:00 26,1 20,9 29,6 28,4 27,1 27 15 42 23 SW 1011,4 35 60 0,0
13.08.2018 17:00:00 25,7 20,7 30,1 28,4 27,2 24 13 34 19 SSW 1012,1 35 60 0,0
13.08.2018 16:00:00 24,6 19,9 30,3 28,4 27,2 27 15 35 19 S 1012,8 35 60 0,0
13.08.2018 15:00:00 24,7 19,1 31,3 28,4 27,3 10 6 16 9 S 1013,3 35 60 0,2
13.08.2018 14:00:00 23,6 18,9 26,7 28,4 27,2 11 6 16 9 WSW 1013,8 35 47 0,0
13.08.2018 13:00:00 22,5 18,5 21,1 28,4 27,2 13 7 21 11 N 1014,4 35 8 0,0
13.08.2018 12:00:00 21,1 18,8 19,7 28,4 27,1 14 7 20 11 NNW 1014,9 15 0 1,2
13.08.2018 11:00:00 21,3 17,5 19,6 28,4 27,2 10 5 27 15 WNW 1014,7 15 0 1,6
13.08.2018 10:00:00 21,4 17,6 18,7 28,4 27,3 10 6 50 27 N 1014,3 8 0 5,3
13.08.2018 09:00:00 23,2 18,1 23,4 28,4 27,2 20 11 29 15 NW 1014,6 20 0 0,0
13.08.2018 08:00:00 23,9 17,4 23,9 28,4 27,2 13 7 22 12 NW 1014,2 30 36 0,0
13.08.2018 07:00:00 23,3 18,0 22,5 28,4 27,2 10 5 16 9 NNW 1013,1 30 5 0,0
13.08.2018 06:00:00 23,0 18,1 22,6 28,3 27,1 10 5 18 10 NNW 1013,2 40 0 0,0
13.08.2018 05:00:00 23,6 18,3 23,2 28,3 27,3 13 7 16 9 NNW 1013,5 40 0 0,0
13.08.2018 04:00:00 23,9 18,3 23,1 28,3 27,3 9 5 14 8 NW 1014,0 40 0 0,0
13.08.2018 03:00:00 24,0 18,4 23,2 28,3 27,0 8 4 15 8 NNW 1014,1 40 0 0,0
13.08.2018 02:00:00 24,3 18,5 23,6 28,3 27,3 5 3 13 7 N 1014,4 10 0 0,0
13.08.2018 01:00:00 24,4 19,0 23,8 28,3 27,3 8 5 15 8 NNW 1014,5 35 0 0,0
13.08.2018 00:00:00 25,3 19,4 24,0 28,2 27,2 7 4 9 5 NNW 1015,0 35 0 0,0
12.08.2018 23:00:00 25,0 19,6 24,2 28,2 27,2 6 3 9 5 W 1016,0 41 0 0,0
12.08.2018 22:00:00 26,2 21,0 25,2 28,2 27,1 5 3 9 5 SSW 1015,6 35 0 0,0
12.08.2018 21:00:00 26,3 20,8 25,9 28,2 27,2 6 3 9 5 W 1014,9 35 14 0,0
12.08.2018 20:00:00 27,3 20,6 30,2 28,2 27,3 3 1 8 5 S 1014,7 35 60 0,0
12.08.2018 19:00:00 27,9 21,0 34,0 28,2 27,2 7 4 11 6 S 1015,1 35 60 0,0
12.08.2018 18:00:00 27,9 21,2 34,2 28,2 27,3 8 4 12 6 SE 1015,5 35 60 0,0
12.08.2018 17:00:00 28,2 21,5 36,8 28,2 27,3 7 4 13 7 SSE 1015,8 35 60 0,0
12.08.2018 16:00:00 28,4 21,7 36,8 28,2 27,2 10 5 16 9 S 1016,5 35 60 0,0
12.08.2018 15:00:00 28,1 22,1 36,0 28,3 27,2 11 6 16 9 SE 1016,8 35 60 0,0
12.08.2018 14:00:00 28,8 22,3 36,1 28,3 27,2 13 7 18 10 ESE 1017,0 35 60 0,0
12.08.2018 13:00:00 28,5 22,0 36,1 28,3 27,3 13 7 16 9 ESE 1017,5 35 60 0,0
12.08.2018 12:00:00 28,0 21,1 35,5 28,3 27,2 9 5 13 7 ESE 1017,7 35 60 0,0
12.08.2018 11:00:00 27,9 20,2 35,3 28,3 27,3 8 5 11 6 E 1017,5 35 60 0,0
12.08.2018 10:00:00 28,4 18,2 31,0 28,3 27,1 6 4 22 12 NE 1017,4 35 60 0,0
12.08.2018 09:00:00 25,9 16,4 27,3 28,3 27,3 15 8 24 13 NNW 1017,3 40 60 0,0
12.08.2018 08:00:00 24,2 16,2 23,0 28,3 27,3 17 9 22 12 NNW 1017,0 40 60 0,0
12.08.2018 07:00:00 22,6 16,2 22,2 28,3 27,3 13 7 20 11 NNW 1016,9 40 6 0,0
12.08.2018 06:00:00 22,8 16,3 22,4 28,3 27,3 16 9 22 12 NNW 1016,6 30 0 0,0
12.08.2018 05:00:00 23,3 16,3 22,9 28,3 27,2 14 8 18 10 NNW 1016,5 30 0 0,0
12.08.2018 04:00:00 23,8 16,8 23,2 28,3 27,3 11 6 15 8 NNW 1016,8 30 0 0,0
12.08.2018 03:00:00 23,9 17,2 23,2 28,3 27,3 10 6 14 8 NNW 1016,8 30 0 0,0
12.08.2018 02:00:00 24,0 17,3 23,3 28,2 27,2 10 6 13 7 NNW 1016,8 30 0 0,0
12.08.2018 01:00:00 24,3 17,8 23,7 28,3 27,4 9 5 15 8 NNW 1017,2 30 0 0,0
12.08.2018 00:00:00 25,3 19,4 24,3 28,2 27,3 10 5 13 7 NNE 1017,4 30 0 0,0
11.08.2018 23:00:00 26,1 20,7 25,0 28,3 27,4 6 3 9 5 NNE 1017,2 40 0 0,0
11.08.2018 22:00:00 26,3 20,6 24,9 28,2 27,3 4 2 6 3 ENE 1017,0 40 0 0,0
11.08.2018 21:00:00 26,5 20,1 26,1 28,3 27,2 4 2 8 4 SE 1016,4 40 18 0,0
11.08.2018 20:00:00 27,3 20,9 29,5 28,3 27,3 5 3 10 5 SE 1016,5 40 57 0,0
11.08.2018 19:00:00 28,1 21,6 31,1 28,3 27,3 7 4 10 5 E 1016,5 50 55 0,0
11.08.2018 18:00:00 28,4 20,9 35,8 28,3 27,4 8 4 9 5 ESE 1016,6 50 60 0,0
11.08.2018 17:00:00 28,8 20,5 37,9 28,3 27,3 7 4 9 5 SE 1016,9 50 60 0,0
11.08.2018 16:00:00 29,0 19,9 39,5 28,4 27,4 8 4 14 7 S 1017,4 50 60 0,0
11.08.2018 15:00:00 29,1 20,5 39,5 28,4 27,3 9 5 12 7 S 1017,9 50 60 0,0
11.08.2018 14:00:00 28,4 20,4 38,6 28,4 27,3 9 5 14 8 S 1018,0 50 60 0,0
11.08.2018 13:00:00 28,0 20,8 36,7 28,4 27,4 10 5 17 9 S 1018,4 50 60 0,0
11.08.2018 12:00:00 27,4 17,8 36,9 28,5 27,3 13 7 17 9 S 1018,4 50 60 0,0
11.08.2018 11:00:00 29,0 17,2 32,9 28,5 27,3 7 4 22 12 WNW 1018,3 50 60 0,0
11.08.2018 10:00:00 27,1 11,2 29,2 28,5 27,4 16 9 25 14 NW 1018,3 50 60 0,0
11.08.2018 09:00:00 24,6 11,2 25,8 28,5 27,3 18 10 27 15 NNW 1018,2 24 60 0,0
11.08.2018 08:00:00 22,9 11,3 21,9 28,5 27,3 17 9 26 14 NNW 1018,0 50 60 0,0
11.08.2018 07:00:00 21,7 12,0 20,7 28,5 27,3 13 7 28 15 NNW 1017,7 50 7 0,0
11.08.2018 06:00:00 21,9 12,4 20,9 28,5 27,3 18 10 22 12 NNW 1017,6 40 0 0,0
11.08.2018 05:00:00 22,9 12,8 22,1 28,6 27,4 12 7 20 11 NNW 1017,7 40 0 0,0
11.08.2018 04:00:00 23,5 13,4 22,0 28,6 27,3 13 7 15 8 NNW 1017,9 40 0 0,0
11.08.2018 03:00:00 24,2 13,4 21,4 28,6 27,4 8 4 14 8 NNW 1017,9 40 0 0,0
11.08.2018 02:00:00 23,6 14,6 20,7 28,6 27,4 11 6 16 8 NNW 1018,4 40 0 0,0
11.08.2018 01:00:00 23,7 17,2 21,3 28,5 27,4 9 5 17 9 NNW 1018,7 40 0 0,0

tt = temperature
td = dewpoint
tt 5cm = temperature 5cm
tt -20cm = temperature -20cm
tt -100cm = temperature -100cm
ff = wind speed
fx = gusts
dd = wind direction
ppp = reduced air pressure
vv = visibility
sd = sunshine duration
rr = precipitation

Next stations